Airfield :
LOGIN :

Register | Disclaimer

   EN    FR    IT 

 










Legend :    VFR   Marginal VFR   IFR   Intensive IFR   Very Intensive IFR
Visi :
Ceiling :
>= 8 km
>= 3000ft
5 to 8 km
1000 to 3000 ft
1500m to 5 km
500 to 1000 ft
800 to 1500m
200 to 500 ft
< 800m
< 200 ft
Symbols :   Thunderstorms  Fog  Heavy snow  Heavy precipitations  Wind > 20 kt
SIGMETs :     Misc.  Thunderstorms  Icing  Turbulence  Mountain Waves  Volcanic Ashes







- Airport Elevation : 156 ft
- IATA code : OMO


LQMO - Mostar

CURRENT METAR :
  • 202200Z 15003KT CAVOK 23/12 Q1012

EXPIRED METARs :
  • 202130Z 12004KT CAVOK 23/12 Q1012
  • 202100Z 13003KT 100V190 CAVOK 25/12 Q1011
  • 202030Z VRB02KT CAVOK 26/12 Q1011
  • 202000Z 10004KT 060V150 CAVOK 26/12 Q1011
  • 201930Z 13003KT 080V210 CAVOK 27/13 Q1011

TAF TAF LQMO
Valid from the 20 at 18:00 until the 21 at 18:00 UTC


201700Z 2018/2118 VRB02KT CAVOK TX38/2114Z TN19/2103Z
TEMPO 2112/2116 22010KT
No reported NOTAMs for that airfield.



MET'MAP, your aeronautical weather chart ! - Copyright ORBIFLY December 2007 - Disclaimer

ORBIFLY MET'MAP TEAM :

Programming & Development : Alexandra Zaïnal
Concept & Development : Baudouin d'Aumeries
Co-Development & Prog : Marc-Olivier Méhu
Technical & hardware support : Manuel Goepfert

Contact : metmap@orbifly.com




SOURCES & CREDITS :

   NOAA